| time (UTC) | temp F | wind direction | speed MPH | gust MPH | rain 1hr in | rain 24hr in | rain mn in | humidity % | barometer mb |
| 20260503003506 | 48 | 47 | 16.0 | 21.0 | 0.00 | 0.06 | 0.00 | 1016.0 | |
| 20260503000506 | 48 | 49 | 15.0 | 20.0 | 0.00 | 0.06 | 0.00 | 1016.0 | |
| 20260502233505 | 48 | 51 | 14.0 | 18.0 | 0.00 | 0.06 | 0.00 | 1016.0 | |
| 20260502230505 | 48 | 51 | 14.0 | 18.0 | 0.00 | 0.06 | 0.00 | 1016.0 | |
| 20260502223505 | 48 | 50 | 14.0 | 17.0 | 0.00 | 0.06 | 0.00 | 1016.0 | |
| 20260502220505 | 48 | 50 | 14.0 | 17.0 | 0.00 | 0.06 | 0.00 | 1016.0 | |
| 20260502213505 | 48 | 48 | 14.0 | 18.0 | 0.00 | 0.06 | 0.00 | 1016.0 | |
| 20260502210505 | 48 | 48 | 14.0 | 18.0 | 0.00 | 0.06 | 0.00 | 1016.0 | |
| 20260502203506 | 48 | 45 | 15.0 | 18.0 | 0.00 | 0.06 | 0.00 | 1016.0 | |
| 20260502200506 | 48 | 45 | 15.0 | 18.0 | 0.00 | 0.06 | 0.00 | 1016.0 | |
| 20260502193506 | 49 | 46 | 12.0 | 15.0 | 0.00 | 0.06 | 0.00 | 1015.0 | |
| 20260502190506 | 49 | 46 | 12.0 | 15.0 | 0.00 | 0.06 | 0.00 | 1015.0 | |
| 20260502183506 | 50 | 76 | 8.0 | 10.0 | 0.00 | 0.06 | 0.00 | 1015.0 | |
| 20260502180506 | 51 | 69 | 11.0 | 13.0 | 0.00 | 0.06 | 0.00 | 1014.0 | |
| 20260502170506 | 53 | 66 | 2.0 | 4.0 | 0.00 | 0.06 | 0.00 | 1014.0 | |
| 20260502163505 | 53 | 307 | 4.0 | 5.0 | 0.00 | 0.06 | 0.00 | 1015.0 | |
| 20260502160505 | 53 | 307 | 4.0 | 5.0 | 0.00 | 0.06 | 0.00 | 1015.0 | |
| 20260502150505 | 53 | 260 | 7.0 | 9.0 | 0.00 | 0.06 | 0.00 | 1015.0 | |
| 20260502130506 | 54 | 253 | 5.0 | 6.0 | 0.00 | 0.06 | 0.00 | 1015.0 | |
| 20260502123506 | 54 | 258 | 7.0 | 8.0 | 0.00 | 0.06 | 0.00 | 1015.0 | |
| 20260502120506 | 54 | 280 | 6.0 | 7.0 | 0.00 | 0.06 | 0.00 | 1015.0 | |
| 20260502113506 | 53 | 250 | 6.0 | 7.0 | 0.00 | 0.06 | 0.00 | 1015.0 | |
| 20260502110506 | 53 | 250 | 6.0 | 7.0 | 0.00 | 0.06 | 0.00 | 1015.0 | |
| 20260502103505 | 52 | 255 | 7.0 | 8.0 | 0.00 | 0.06 | 0.00 | 1015.0 | |
| 20260502100505 | 52 | 255 | 7.0 | 8.0 | 0.00 | 0.06 | 0.00 | 1015.0 | |
| 20260502090505 | 52 | 263 | 9.0 | 11.0 | 0.00 | 0.00 | 0.00 | 1015.0 | |
| 20260502070506 | 50 | 250 | 11.0 | 14.0 | 0.00 | 0.00 | 0.00 | 1015.0 | |
| 20260502063506 | 50 | 243 | 11.0 | 13.0 | 0.00 | 0.00 | 0.00 | 1015.0 | |
| 20260502060506 | 49 | 244 | 12.0 | 15.0 | 0.00 | 0.00 | 0.00 | 1015.0 | |
| 20260502053506 | 49 | 242 | 11.0 | 13.0 | 0.00 | 0.00 | 0.00 | 1015.0 | |
| 20260502050506 | 49 | 242 | 11.0 | 13.0 | 0.00 | 0.00 | 0.00 | 1015.0 | |
| 20260502043505 | 49 | 245 | 11.0 | 13.0 | 0.00 | 0.00 | 0.00 | 1015.0 | |
| 20260502040506 | 49 | 245 | 11.0 | 13.0 | 0.00 | 0.00 | 0.00 | 1015.0 | |
| 20260502033505 | 49 | 246 | 10.0 | 13.0 | 0.00 | 0.00 | 0.00 | 1016.0 | |
| 20260502030505 | 49 | 246 | 10.0 | 13.0 | 0.00 | 0.00 | 0.00 | 1016.0 | |
| 20260502023505 | 50 | 242 | 10.0 | 13.0 | 0.00 | 0.00 | 0.00 | 1017.0 | |
| 20260502020505 | 50 | 242 | 10.0 | 13.0 | 0.00 | 0.00 | 0.00 | 1017.0 | |
| 20260502013506 | 51 | 241 | 11.0 | 14.0 | 0.00 | 0.00 | 0.00 | 1017.0 | |
| 20260502010505 | 51 | 241 | 11.0 | 14.0 | 0.00 | 0.00 | 0.00 | 1017.0 |